This demonstration page uses our WeatherBlox Daily Observations layout. Learn more.

Left ArrowRight Arrow

38.20091, -84.87328

Hourly Observations for August 13, 2021

Temp ( °F °C ) Dew Point ( °F °C ) Humidity (%) Winds ( mph kmh ) Pressure ( in mb ) Visibility ( mi km ) Precip ( " mm )
12:53 am 00:53 Clear 76 24.4 69 20.6 79 79 SSW 7 11 30.05 1018 10 16 0.00 0.00
1:53 am 01:53 Clear 75 23.9 70 21.1 84 84 Calm 30.04 1017 10 16 0.00 0.00
2:53 am 02:53 Clear 73 22.8 70 21.1 90 90 Calm 30.05 1018 10 16 0.00 0.00
3:53 am 03:53 Mostly Clear 74 23.3 71 21.7 91 91 WSW 5 7 30.05 1018 10 16 0.00 0.00
4:53 am 04:53 Clear 76 24.4 72 22.2 88 88 S 7 11 30.04 1017 10 16 0.00 0.00
5:53 am 05:53 Clear 75 23.9 72 22.2 90 90 S 7 11 30.04 1017 10 16 0.00 0.00
6:53 am 06:53 Clear 75 23.9 72 22.2 90 90 S 7 11 30.07 1018 10 16 0.00 0.00
7:53 am 07:53 Sunny 76 24.4 72 22.2 88 88 Calm 30.09 1019 10 16 0.00 0.00
8:53 am 08:53 Sunny 80 26.7 73 22.8 79 79 S 8 13 30.09 1019 10 16 0.00 0.00
9:53 am 09:53 Sunny 83 28.3 74 23.3 74 74 SSW 7 11 30.09 1019 10 16 0.00 0.00
10:53 am 10:53 Sunny 86 30 75 23.9 70 70 SW 8 13 30.10 1019 10 16 0.00 0.00
11:53 am 11:53 Sunny 88 31.1 74 23.3 63 63 SSW 14 22 30.11 1020 10 16 0.00 0.00
12:53 pm 12:53 Partly Cloudy 89 31.7 75 23.9 63 63 SW 14 22 30.10 1019 10 16 0.00 0.00
1:46 pm 13:46 Mostly Cloudy with Thunderstorms 81 27.2 73 22.8 77 77 NW 13 20 30.08 1019 6 10 0.01 0.25
1:53 pm 13:53 Cloudy with Thunderstorms 80 26.7 71 21.7 74 74 WNW 5 7 30.09 1019 7 11 0.01 0.25
2:01 pm 14:01 Mostly Cloudy with Nearby Thunderstorms 84 28.9 71 21.7 65 65 W 5 7 30.07 1018 10 16 0.00 0.00
2:10 pm 14:10 Mostly Cloudy with Light Rain 84 28.9 74 23.3 72 72 VRB 6 9 30.07 1018 4 6 0.03 0.76
2:18 pm 14:18 Mostly Cloudy with Light Rain 85 29.4 77 25 77 77 Calm 30.06 1018 3 4 0.05 1.27
2:25 pm 14:25 Partly Cloudy 87 30.6 79 26.1 77 77 WSW 6 9 30.05 1018 10 16 0.05 1.27
2:53 pm 14:53 Sunny 88 31.1 74 23.3 63 63 SSW 10 17 30.06 1018 10 16 0.05 1.27
3:53 pm 15:53 Mostly Sunny 92 33.3 72 22.2 52 52 W 8 13 30.04 1017 10 16 0.00 0.00
4:53 pm 16:53 Sunny 90 32.2 73 22.8 58 58 WNW 8 13 30.03 1017 10 16 0.00 0.00
5:17 pm 17:17 Sunny with Nearby Thunderstorms 91 32.8 73 22.8 56 56 W 12 19 30.00 1016 10 16 0.00 0.00
5:49 pm 17:49 Partly Cloudy with Thunderstorms 90 32 72 22 55 55 VRB 6 9 30.01 1016 10 16 0.00 0.00
5:53 pm 17:53 Partly Cloudy with Thunderstorms 89 31.7 72 22.2 57 57 undefined N/A 30.03 1017 10 16 0.00 0.00
6:04 pm 18:04 Mostly Cloudy 82 27.8 70 21.1 67 67 SSE 13 20 30.02 1017 10 16 0.00 0.00
6:11 pm 18:11 Mostly Cloudy with Nearby Thunderstorms 82 27.8 69 20.6 65 65 SSE 17 28 30.03 1017 10 16 0.00 0.00
6:53 pm 18:53 Mostly Cloudy with Nearby Thunderstorms 77 25 69 20.6 77 77 SSE 21 33 30.07 1018 10 16 0.00 0.00
7:31 pm 19:31 Cloudy 76 24.4 71 21.7 85 85 S 14 22 30.06 1018 10 16 0.00 0.00
7:42 pm 19:42 Cloudy with Nearby Thunderstorms 75 23.9 71 21.7 88 88 SSW 23 37 30.08 1019 7 11 0.00 0.00
7:53 pm 19:53 Cloudy with Nearby Thunderstorms 73 22.8 71 21.7 94 94 SW 23 37 30.09 1019 1 1 0.23 5.84
8:04 pm 20:04 Cloudy with Strong Thunderstorms 73 22.8 71 21.7 94 94 SW 14 22 30.09 1019 1 2 0.13 3.30
8:12 pm 20:12 Cloudy with Strong Thunderstorms 73 22.8 70 21.1 90 90 SW 12 19 30.09 1019 2 2 0.19 4.83
8:21 pm 20:21 Cloudy with Nearby Thunderstorms 73 22.8 71 21.7 94 94 NW 8 13 30.11 1020 2 2 0.27 6.86
8:26 pm 20:26 Cloudy with Thunderstorms 73 22.8 70 21.1 90 90 N 7 11 30.11 1020 3 5 0.27 6.86
8:46 pm 20:46 Mostly Cloudy 73 22.8 71 21.7 94 94 NE 8 13 30.10 1019 10 16 0.27 6.86
8:53 pm 20:53 Mostly Cloudy 73 22.8 70 21.1 90 90 NE 5 7 30.11 1020 10 16 0.27 6.86
9:12 pm 21:12 Partly Cloudy with Nearby Thunderstorms 73 22.8 71 21.7 94 94 SE 3 6 30.08 1019 10 16 0.00 0.00
9:27 pm 21:27 Clear 73 22.8 71 21.7 94 94 Calm 30.07 1018 10 16 0.00 0.00
9:53 pm 21:53 Clear 73 22.8 70 21.1 90 90 Calm 30.08 1019 10 16 0.00 0.00
10:53 pm 22:53 Clear 72 22.2 71 21.7 97 97 S 7 11 30.09 1019 10 16 0.00 0.00
11:53 pm 23:53 Clear 72 22.2 70 21.1 94 94 S 3 6 30.09 1019 10 16 0.00 0.00

Powered by AerisWeather